Погода в Бюи

Швейцария     47°28′47″N   7°01′51″E
темп.,
°C
ветер,
м/с
пор.,
м/с
влажн.,
%
обл.,
%
осадки,
мм/ч
давл.,
гПа
погр.,
м
17 августа, ср
ср1723:00+18ююв226244 0.0 101012
02:00+18ю2261100 0.0 101013
05:00+16зюз2486100 0.3 1012129
08:00+18всв117839 0.3 101277
11:00+27св23406 0.0 1011930
14:00+30сз532996 0.0 10102534
17:00+17зсз51288100 2.1 1012380
20:00+18всв2490100 3.0 1011106
18 августа, чт
чт1823:00+16юз3494100 1.1 101485
02:00+16зюз2298100 6.4 101458
05:00+15ссв009892 4.5 101418
08:00+16з2398100 4.9 1015138
11:00+18зсз218380 0.6 1014547
14:00+20зсз228292 4.4 1014609
17:00+20всв228199 3.9 1013611
20:00+18всв1288100 5.8 101315
19 августа, пт
пт1923:00+16ююз1192100 0.2 101411
02:00+15юз119394 0.2 101414
05:00+14з2295100 0.1 101415
08:00+15юз239491 0.1 1015116
11:00+21з45695 0.0 1016616
14:00+26з354429 0.4 10142079
17:00+24з5849100 0.1 1015589
20:00+21з356415 0.3 101698
20 августа, сб
сб2023:00+16юз35858 0.3 101866
02:00+15юз34880 0.3 101863
05:00+14юз35888 0.0 101974
08:00+16зюз358315 0.0 1019133
11:00+23зсз34565 0.1 1019949
14:00+25зсз444716 0.3 10181588
17:00+26з334568 0.1 10171937
20:00+20зюз227294 0.4 101843
21 августа, вс
вс2123:00+18ююз237998 0.0 101964
02:00+16ююз2289100 0.0 101913
05:00+14юз1191100 0.0 101811
08:00+17ююз1184100 0.0 101945
11:00+22ссз115999 0.0 1018604
14:00+26с124276 0.0 10171848
17:00+26сз2235100 0.0 10162211
20:00+21ссв1158100 0.0 101611